Regional Weather Roundup
Issued by NWS Spokane, WA

Home | Current Version | Previous Version | Text Only | Print | Product List | Glossary On
Versions: 1 2 3 4 5 6 7 8 9 10 11 12 13 14 15 16 17 18 19 20 21 22 23 24 25 26 27 28 29 30 31 32 33 34 35 36 37 38 39 40 41 42 43 44 45 46 47 48 49 50
000
NZUS01 KOTX 181910
RWROTX
EASTERN WASHINGTON/NORTHERN IDAHO ROUNDUP
NATIONAL WEATHER SERVICE, SPOKANE WA
1200 PM PDT FRI APR 18 2014

Note: "fair" indicated few or no clouds below 12,000 feet with no
significant weather and/or obstructions to visibility.

...NORTHEAST WASHINGTON AND NORTHERN IDAHO PANHANDLE...

CITY           SKY/WX    TMP DP  RH WIND       PRES   REMARKS
SPOKANE INTL   PTSUNNY   46  28  49 SW28G33   29.93R
SPOKANE DOWNTO PTSUNNY   48  29  47 W17G28    29.95R
COEUR D ALENE  CLOUDY    45  30  57 SW21G26   29.95R
DEER PARK      MOSUNNY   51  27  39 SW16      29.91R
SANDPOINT      CLOUDY    46  30  53 SW15G23   29.89R

...SOUTHEAST WASHINGTON AND SOUTHERN IDAHO PANHANDLE...

CITY           SKY/WX    TMP DP  RH WIND       PRES   REMARKS
WALLA WALLA    MOSUNNY   54  35  48 SW22      30.06S
PULLMAN/MOSCOW MOSUNNY   46  31  55 SW23G37   30.00S
LEWISTON       PTSUNNY   56  19  23 MISG      29.99F
LOWELL           N/A     56  28  34 VRB3      29.99R

...COLUMBIA BASIN...

CITY           SKY/WX    TMP DP  RH WIND       PRES   REMARKS
EPHRATA        SUNNY     57  18  21 W16G26    29.95R
MOSES LAKE     SUNNY     58  24  27 W14       29.97R
TRI CITIES     MOSUNNY   60  34  37 SW18G32   30.04S
HERMISTON      PTSUNNY   58  34  40 W21G26    30.07S
PENDLETON      MOSUNNY   53  30  41 W20       30.06S

...EAST SLOPES CASCADES...

CITY           SKY/WX    TMP DP  RH WIND       PRES   REMARKS
THE DALLES     MOSUNNY   55  35  47 N17       30.12F
YAKIMA         MOSUNNY   57  21  24 W12G23    30.01S
ELLENSBURG     SUNNY     52  27  38 W28G35    29.99R
WENATCHEE      SUNNY     57  18  21 NW20G28   29.96R
OMAK           PTSUNNY   60  20  21 VRB7      29.87R

...SOUTHERN BRITISH COLUMBIA...

CITY           SKY/WX    TMP DP  RH WIND       PRES   REMARKS
PENTICTON      PTSUNNY   52  28  40 NE7       29.90R
CASTLEGAR      PTSUNNY   46  32  57 VRB5      29.86R
CRANBROOK      CLOUDY    43  34  70 S18G28    29.69R

...WESTERN MONTANA...

CITY           SKY/WX    TMP DP  RH WIND       PRES   REMARKS
MISSOULA       MOSUNNY   51  23  33 W20G26    29.88R

...NEIGHBORING CITIES...

CITY           SKY/WX    TMP DP  RH WIND       PRES   REMARKS
SEATTLE        PTSUNNY   53  40  61 S12       30.13S
CALGARY        LGT SNOW  34  32  93 N12       29.59S FOG     WCI  25



USA.gov is the U.S. government's official web portal to all federal, state and local government web resources and services.